TimeEET,TemperatureF,Dew PointF,Humidity,Sea Level PressureIn,VisibilityMPH,Wind Direction,Wind SpeedMPH,Gust SpeedMPH,PrecipitationIn,Events,Conditions,WindDirDegrees,DateUTC
12:50 AM,41.0,32.0,70,30.15,6.2,Calm,Calm,-,N/A,,Partly Cloudy,0,2013-03-17 22:50:00
1:50 AM,41.0,32.0,70,30.15,6.2,Calm,Calm,-,N/A,,Partly Cloudy,0,2013-03-17 23:50:00
2:50 AM,41.0,33.8,76,30.15,6.2,Calm,Calm,-,N/A,,Partly Cloudy,0,2013-03-18 00:50:00
3:50 AM,41.0,33.8,76,30.15,6.2,Calm,Calm,-,N/A,,Partly Cloudy,0,2013-03-18 01:50:00
4:50 AM,41.0,33.8,76,30.15,6.2,North,4.6,-,N/A,,Partly Cloudy,350,2013-03-18 02:50:00
5:20 AM,41.0,33.8,76,30.15,6.2,North,4.6,-,N/A,,Partly Cloudy,350,2013-03-18 03:20:00
5:50 AM,41.0,33.8,76,30.12,6.2,North,4.6,-,N/A,,Partly Cloudy,350,2013-03-18 03:50:00
6:50 AM,42.8,35.6,76,30.12,6.2,NNW,4.6,-,N/A,,Mostly Cloudy,340,2013-03-18 04:50:00
7:20 AM,42.8,35.6,76,30.12,6.2,NNW,3.5,-,N/A,,Mostly Cloudy,340,2013-03-18 05:20:00
7:50 AM,44.6,37.4,76,30.12,6.2,North,3.5,-,N/A,,Mostly Cloudy,350,2013-03-18 05:50:00
8:20 AM,46.4,37.4,71,30.12,6.2,NNW,3.5,-,N/A,,Mostly Cloudy,340,2013-03-18 06:20:00
8:50 AM,50.0,39.2,66,30.12,6.2,Calm,Calm,-,N/A,,Mostly Cloudy,0,2013-03-18 06:50:00
9:20 AM,51.8,39.2,62,30.12,6.2,Calm,Calm,-,N/A,,Mostly Cloudy,0,2013-03-18 07:20:00
9:50 AM,53.6,39.2,58,30.12,6.2,South,5.8,-,N/A,,Scattered Clouds,170,2013-03-18 07:50:00
10:20 AM,53.6,39.2,58,30.12,6.2,SSE,6.9,-,N/A,,Scattered Clouds,160,2013-03-18 08:20:00
10:50 AM,53.6,39.2,58,30.12,6.2,SSE,6.9,-,N/A,,Scattered Clouds,160,2013-03-18 08:50:00
11:20 AM,55.4,39.2,54,30.12,6.2,SSE,9.2,-,N/A,,Scattered Clouds,160,2013-03-18 09:20:00
11:50 AM,55.4,39.2,54,30.09,6.2,SSE,8.1,-,N/A,,Scattered Clouds,160,2013-03-18 09:50:00
12:20 PM,55.4,39.2,54,30.09,6.2,SSE,10.4,-,N/A,,Mostly Cloudy,160,2013-03-18 10:20:00
12:50 PM,53.6,39.2,58,30.09,6.2,SSE,8.1,-,N/A,,Overcast,160,2013-03-18 10:50:00
1:20 PM,53.6,39.2,58,30.09,6.2,SSE,8.1,-,N/A,,Overcast,150,2013-03-18 11:20:00
1:50 PM,53.6,39.2,58,30.04,6.2,SSE,8.1,-,N/A,,Overcast,160,2013-03-18 11:50:00
2:20 PM,53.6,39.2,58,30.04,6.2,SSE,8.1,-,N/A,,Overcast,160,2013-03-18 12:20:00
2:50 PM,55.4,41.0,58,30.04,6.2,SSE,8.1,-,N/A,,Overcast,160,2013-03-18 12:50:00
3:20 PM,53.6,41.0,62,30.04,6.2,SSE,9.2,-,N/A,,Light Drizzle,160,2013-03-18 13:20:00
3:50 PM,53.6,44.6,72,30.04,6.2,SSE,8.1,-,N/A,,Light Drizzle,160,2013-03-18 13:50:00
4:20 PM,53.6,44.6,72,30.04,6.2,South,5.8,-,N/A,,Overcast,170,2013-03-18 14:20:00
4:50 PM,53.6,44.6,72,30.01,6.2,SSE,5.8,-,N/A,,Overcast,160,2013-03-18 14:50:00
5:20 PM,53.6,42.8,67,30.01,6.2,South,4.6,-,N/A,,Overcast,190,2013-03-18 15:20:00
5:50 PM,53.6,44.6,72,30.01,6.2,South,5.8,-,N/A,,Overcast,170,2013-03-18 15:50:00
6:20 PM,53.6,46.4,77,30.01,6.2,Calm,Calm,-,N/A,,Overcast,0,2013-03-18 16:20:00
6:50 PM,53.6,46.4,77,29.98,6.2,SSE,3.5,-,N/A,,Drizzle,150,2013-03-18 16:50:00
7:20 PM,53.6,46.4,77,29.98,6.2,SSE,6.9,-,N/A,,Light Drizzle,160,2013-03-18 17:20:00
7:50 PM,51.8,44.6,76,29.98,6.2,SSE,6.9,-,N/A,,Overcast,160,2013-03-18 17:50:00
8:20 PM,53.6,44.6,72,29.98,6.2,SSE,3.5,-,N/A,,Overcast,160,2013-03-18 18:20:00
8:50 PM,53.6,44.6,72,29.98,6.2,SSE,4.6,-,N/A,,Mostly Cloudy,160,2013-03-18 18:50:00
9:20 PM,53.6,46.4,77,29.98,6.2,Calm,Calm,-,N/A,,Mostly Cloudy,0,2013-03-18 19:20:00
9:50 PM,51.8,46.4,82,29.98,6.2,Calm,Calm,-,N/A,,Mostly Cloudy,0,2013-03-18 19:50:00
10:20 PM,51.8,46.4,82,29.98,6.2,Calm,Calm,-,N/A,,Mostly Cloudy,0,2013-03-18 20:20:00
10:50 PM,53.6,48.2,82,29.95,6.2,SSE,4.6,-,N/A,,Mostly Cloudy,160,2013-03-18 20:50:00
11:50 PM,53.6,46.4,77,29.92,6.2,South,5.8,-,N/A,,Mostly Cloudy,170,2013-03-18 21:50:00